GFSMW_prec_cthk_021.txt.gz
RH
55 53 56 59 65 69 72 71 70 74 85 87 79 73 64 64 63 55 52 49 47 50 53 57 59 61 62 61 58 55 50 41 35 38 42 40 33 34 37 39 45 46 40
54 55 60 62 65 69 72 71 76 79 83 79 70 64 63 60 57 49 47 51 55 58 64 67 69 66 62 58 52 48 43 39 36 40 41 35 29 30 37 40 42 39 43
54 57 58 63 69 72 76 77 77 71 71 68 63 61 54 50 53 55 57 59 65 67 67 65 62 58 52 51 45 43 43 36 33 33 39 38 36 36 36 34 33 35 41
54 55 61 66 68 68 66 63 60 60 57 57 55 53 57 62 60 62 64 66 65 64 61 56 54 52 45 45 44 42 40 35 37 42 41 42 44 45 39 38 36 41 43
48 54 62 62 59 61 62 60 55 51 48 50 50 53 55 61 64 66 66 65 63 57 54 51 52 52 47 45 44 42 41 42 45 44 42 41 46 45 42 36 38 43 46
49 53 55 54 57 59 59 52 50 50 49 49 51 55 58 62 62 68 71 68 58 51 48 46 40 37 44 45 45 48 42 42 49 44 40 45 43 41 43 44 41 47 42
46 47 48 49 54 55 54 53 51 52 50 53 54 56 58 64 71 88 72 63 50 48 45 38 37 36 42 43 44 43 40 56 55 48 44 46 48 51 51 56 51 52 45
43 44 45 48 51 55 55 53 54 52 52 56 55 56 70 78 83 71 60 44 45 41 35 36 39 41 45 47 45 51 58 60 60 49 57 51 53 59 62 65 66 57 49
42 44 46 48 51 55 56 55 54 52 53 56 61 66 71 73 60 48 43 40 36 34 37 40 42 44 43 40 51 54 62 64 56 62 69 61 61 66 68 68 70 70 59
41 42 45 48 50 53 56 56 53 53 58 65 66 67 69 69 67 59 42 39 38 38 44 43 39 37 41 42 52 47 48 63 60 75 73 61 67 72 73 69 76 75 67
40 42 45 46 48 52 55 54 54 59 63 69 67 67 66 65 61 46 43 42 42 49 47 44 41 39 40 43 42 50 62 63 72 74 67 65 74 73 75 77 76 71 68
40 43 44 46 49 51 53 55 57 63 66 71 69 64 67 60 52 50 51 49 54 52 48 43 41 45 46 43 44 46 59 57 63 62 68 74 76 79 80 76 68 60 57
38 43 43 46 49 52 53 55 60 62 68 69 65 68 61 56 52 55 54 57 57 51 47 43 45 45 45 42 46 48 49 54 60 68 75 79 78 76 64 56 51 46 52
37 43 45 46 51 55 56 58 61 65 69 69 66 64 61 56 58 60 60 61 56 52 47 45 47 46 44 53 50 49 55 61 68 74 77 73 68 50 46 41 42 51 50
36 40 45 48 52 56 57 59 61 66 70 69 66 62 58 64 66 63 63 60 57 52 48 50 48 48 54 60 57 50 60 66 68 68 65 56 45 41 38 44 47 52 51
36 41 45 49 52 54 54 57 65 69 73 66 62 67 65 70 70 65 62 58 54 54 49 52 50 50 56 53 50 48 53 57 57 56 49 45 45 47 51 51 49 48 54
36 40 43 47 50 51 52 59 71 72 75 68 73 74 74 77 65 62 58 53 53 53 56 52 49 49 51 46 44 43 45 48 50 47 47 47 49 55 53 50 47 53 59
36 39 45 48 54 58 59 70 73 75 75 72 81 78 74 66 61 59 55 51 53 54 51 52 51 49 49 48 46 44 43 48 49 50 49 54 56 52 43 40 46 56 64
40 43 49 54 61 65 70 71 76 77 77 85 80 72 67 63 61 56 54 52 50 47 54 52 51 51 54 55 50 46 45 50 53 54 57 55 46 43 35 37 50 57 69
44 49 56 65 70 71 74 74 77 91 88 81 79 77 68 64 60 58 51 53 53 53 53 50 50 51 58 54 51 45 44 50 54 58 59 51 42 41 35 35 42 57 72
57 61 68 72 73 73 78 82 82 86 85 84 76 73 66 64 57 53 51 54 53 52 50 49 49 57 61 59 48 46 48 52 55 56 50 50 45 40 39 39 42 54 63
70 72 72 68 70 82 87 92 92 84 82 79 72 69 63 59 58 53 52 56 55 55 50 48 54 65 66 59 53 48 49 52 53 50 45 44 40 38 40 43 47 48 63
68 68 70 75 83 92 95 91 87 81 77 76 67 66 61 60 58 56 47 49 49 48 51 55 62 70 71 68 63 54 55 54 52 45 43 39 37 38 43 48 51 53 63
67 73 81 89 93 92 87 85 82 83 73 68 67 63 63 57 53 52 51 45 47 48 50 60 66 75 77 74 69 61 58 55 54 47 44 39 39 40 42 48 53 57 62
80 86 89 93 92 92 87 87 81 73 66 63 63 61 59 57 51 50 44 40 43 49 55 60 71 75 73 72 67 64 65 62 59 49 42 44 46 43 44 45 48 53 59
89 92 93 91 90 89 84 79 71 65 64 63 57 54 53 51 51 51 47 42 42 49 55 64 72 77 72 69 61 58 59 60 59 50 47 48 47 45 44 43 44 46 51

GFSMW_prec_cthk_024.txt.gz
RH
49 48 50 52 56 60 60 65 65 70 75 74 80 77 69 60 60 54 45 45 45 45 49 53 55 57 58 58 55 52 45 40 36 35 35 34 32 31 33 36 35 39 44
50 49 50 53 58 64 60 64 72 72 73 75 75 66 63 58 48 44 44 46 48 49 54 58 59 57 54 49 46 41 36 38 39 37 32 33 34 31 32 31 34 38 42
52 52 54 55 58 62 64 68 70 69 66 60 60 60 56 49 44 46 48 54 57 59 63 63 63 58 49 45 38 35 39 42 38 35 37 36 36 37 35 33 28 28 31
50 51 55 57 58 63 67 65 65 62 63 57 56 53 47 49 52 55 55 59 63 70 70 68 59 47 42 40 35 38 40 40 37 35 34 37 37 37 33 33 33 34 35
45 47 53 52 58 61 60 63 60 58 56 55 48 48 49 54 56 58 61 64 70 70 63 52 40 34 31 31 35 39 42 40 38 36 33 36 36 34 33 32 33 30 27
41 47 52 52 56 56 55 55 55 53 51 50 49 48 49 51 52 57 63 69 73 61 49 39 33 30 32 33 39 44 42 40 39 37 47 46 43 39 41 38 35 34 34
40 47 50 49 51 50 51 52 50 51 49 48 48 48 51 52 55 61 66 67 59 51 46 40 33 33 34 39 43 41 41 42 43 53 55 53 53 52 54 51 43 53 41
44 45 46 47 46 47 48 49 51 50 48 47 47 49 53 61 62 62 59 58 60 53 47 37 35 35 41 44 47 42 39 49 52 58 62 65 62 63 72 63 57 53 48
42 43 44 44 45 48 50 51 52 50 49 49 50 54 59 65 67 61 55 52 51 49 39 38 39 43 43 43 47 38 50 59 56 60 67 71 72 74 75 68 71 70 59
40 39 39 40 42 46 49 50 51 51 51 50 55 61 63 67 68 57 55 60 55 41 41 44 47 48 45 43 47 49 50 48 53 62 66 75 76 77 70 65 70 70 75
35 34 36 39 42 46 47 50 52 50 50 55 59 63 66 68 60 58 62 61 50 45 51 52 50 49 49 55 56 51 45 48 50 61 62 73 77 72 64 71 72 72 72
35 35 37 39 41 45 47 49 51 50 53 58 63 65 65 69 61 62 65 58 52 54 58 54 51 51 53 55 48 42 50 47 46 52 54 62 67 67 74 71 64 54 44
37 40 41 41 40 44 48 50 52 53 57 62 67 69 66 73 73 64 64 59 57 62 62 55 53 53 55 58 53 56 59 51 48 51 52 60 68 71 66 53 41 37 36
38 42 49 47 46 48 51 54 54 56 60 66 73 68 73 77 71 66 62 66 69 67 65 58 55 55 56 57 56 65 62 50 48 55 59 62 60 52 43 38 35 36 43
40 44 51 55 56 52 54 57 57 58 62 72 71 76 76 69 76 66 76 77 65 66 64 64 58 59 60 59 60 62 58 48 47 51 54 54 46 42 38 39 41 45 44
30 39 43 51 54 56 60 60 58 58 67 74 76 75 76 77 73 82 74 63 70 69 66 68 65 65 65 60 52 54 43 39 42 46 46 46 44 43 45 49 47 44 42
31 34 42 47 52 56 57 58 61 65 74 75 76 78 80 80 86 81 66 75 68 69 73 69 66 64 66 50 51 47 38 37 40 42 41 44 48 47 51 46 42 36 44
38 38 40 45 48 53 60 63 67 70 76 77 80 82 86 85 82 74 77 70 72 68 64 66 67 68 64 53 48 51 45 43 42 40 43 47 52 49 43 38 34 33 39
38 40 41 47 54 60 68 71 75 74 75 79 82 91 92 87 75 78 75 70 68 67 67 66 64 65 56 46 50 57 52 45 42 44 47 52 55 43 42 38 34 34 38
41 48 53 62 68 72 73 71 76 76 82 90 90 87 86 88 80 74 71 70 67 67 66 63 62 56 51 48 53 61 52 44 45 47 50 51 47 45 42 37 35 35 39
54 61 69 71 67 67 68 74 81 83 88 94 95 92 87 79 76 73 72 69 63 64 62 60 52 45 46 48 61 61 52 50 48 49 52 52 44 42 37 36 38 40 42
66 65 63 63 63 71 80 85 90 97 97 90 91 86 78 73 74 70 65 62 58 58 53 49 46 45 51 55 61 66 61 55 51 51 52 48 43 38 35 36 39 43 46
60 60 65 76 80 82 86 92 93 88 89 92 84 74 73 74 69 60 52 46 42 41 41 45 46 50 59 61 64 69 69 61 55 55 54 46 42 37 36 36 39 40 42
65 76 78 79 84 87 89 91 93 93 87 79 71 72 65 58 49 48 44 43 38 36 40 46 51 58 65 72 73 69 69 67 60 59 56 48 44 41 39 40 40 40 41
76 78 81 85 85 87 90 91 86 83 74 67 64 58 51 46 43 42 42 38 36 39 41 49 58 64 68 78 83 78 71 65 65 64 62 52 47 46 42 41 42 40 38
79 77 77 77 81 81 79 75 72 64 59 51 43 44 42 41 41 38 38 39 40 43 50 54 59 65 71 77 82 78 77 67 65 63 61 55 49 51 47 44 47 45 40

GFSMW_prec_cthk_030.txt.gz
RH
42 42 41 45 48 47 48 47 51 62 61 59 54 55 52 54 52 47 41 38 37 38 38 39 41 48 55 56 55 51 46 38 34 32 33 32 31 31 31 27 27 27 30
44 42 39 40 41 46 49 53 61 65 59 55 56 56 58 61 51 43 41 40 39 40 42 48 54 60 63 61 49 49 43 40 38 38 37 38 37 36 33 26 26 29 29
41 45 40 39 39 43 47 53 66 68 60 59 60 60 63 57 51 45 43 42 44 48 52 56 60 58 56 55 58 47 44 41 38 40 42 43 42 39 36 35 37 38 37
38 40 41 40 40 43 56 63 65 63 60 66 63 60 58 51 48 46 46 47 50 53 55 59 65 60 53 46 43 43 44 40 42 45 48 49 47 44 42 42 45 43 44
38 41 41 42 44 46 52 61 59 60 62 59 60 60 57 54 51 52 52 53 55 58 59 61 65 57 45 39 41 49 48 43 44 48 51 51 49 50 51 48 50 51 52
48 49 52 52 53 58 55 63 63 56 60 60 60 59 57 56 54 57 57 59 64 65 70 67 62 54 45 45 47 44 46 45 47 53 56 53 51 56 57 56 52 53 58
51 53 54 58 60 61 64 65 55 55 59 58 59 61 60 63 66 67 70 73 72 71 79 72 60 59 55 52 44 44 45 49 55 58 56 59 62 67 67 63 63 64 58
44 45 50 55 59 64 57 58 53 50 50 57 59 61 66 69 72 73 74 74 75 76 77 61 70 52 51 59 56 49 50 53 55 55 58 60 59 58 63 71 73 72 61
35 39 44 50 51 58 54 51 52 49 51 57 64 67 70 72 75 75 78 76 74 81 76 69 68 53 59 50 50 51 57 57 58 57 62 63 63 60 67 76 71 66 58
34 38 38 39 41 43 47 49 48 50 52 60 66 70 72 74 75 76 75 80 82 68 71 66 63 57 61 54 58 57 58 64 64 64 65 66 66 66 69 60 62 61 62
30 32 32 32 32 38 40 42 43 48 52 57 64 70 74 75 79 81 78 72 70 79 77 74 64 66 62 60 60 64 63 68 72 72 69 72 72 68 60 58 54 57 61
31 31 30 31 34 36 38 38 42 49 54 55 59 64 69 75 77 70 69 70 75 79 72 71 70 64 65 66 68 69 70 70 74 76 80 76 71 60 58 54 56 56 55
33 34 37 39 39 38 39 45 44 49 60 70 73 71 71 68 62 61 65 71 72 68 71 76 72 69 73 74 76 68 68 78 79 78 74 67 64 57 51 50 48 40 40
38 41 44 43 42 42 50 52 63 65 79 78 73 69 67 63 65 67 70 71 70 73 78 79 71 75 76 78 77 79 76 81 73 71 67 54 45 44 44 44 38 39 40
39 42 47 44 45 50 53 56 65 77 76 73 69 66 68 70 71 70 71 73 76 81 85 80 82 77 75 77 85 78 76 72 66 55 46 44 41 41 39 38 40 42 46
36 39 39 39 40 46 52 59 58 71 70 67 67 73 77 74 69 74 76 78 79 84 82 84 80 77 82 79 76 70 64 56 48 43 46 49 46 39 39 42 43 48 42
36 34 31 31 34 40 46 50 53 58 65 71 75 74 71 73 77 79 79 83 88 95 92 84 80 79 72 66 62 53 49 48 46 47 51 56 48 42 43 44 49 45 42
34 34 33 33 36 39 45 52 59 75 78 79 77 76 77 75 75 75 82 91 96 92 83 79 71 65 58 52 47 45 45 45 49 52 57 57 48 46 47 48 45 42 38
34 32 33 34 38 45 54 60 68 72 72 74 80 85 92 85 83 89 96 96 89 84 75 68 59 47 39 39 39 42 45 46 50 55 57 50 48 49 49 47 43 37 33
34 36 38 45 51 54 59 62 63 70 75 81 84 88 95 93 97 96 92 88 80 67 52 44 32 30 33 39 43 47 49 49 53 57 56 57 55 52 50 47 41 35 34
38 45 52 56 57 60 61 66 75 81 91 93 96 90 89 92 90 89 78 57 50 40 28 22 24 30 35 40 45 48 49 54 56 62 65 63 61 54 53 46 40 37 37
50 55 56 57 59 61 67 76 84 87 87 87 88 90 85 76 62 50 40 35 28 23 23 26 30 32 36 40 46 50 51 57 60 67 74 75 71 61 55 48 43 42 41
54 55 58 62 67 72 79 83 83 81 79 76 70 62 51 41 35 32 29 22 23 24 27 31 35 36 38 39 44 50 58 59 63 73 78 84 82 67 63 55 46 44 44
56 61 65 70 77 78 78 77 72 69 63 56 48 40 34 29 26 23 22 24 26 29 34 39 42 44 42 43 46 49 58 63 69 76 78 85 88 71 66 61 50 48 48
67 71 76 79 78 77 72 65 60 54 48 39 30 24 21 20 21 23 26 28 32 38 44 49 51 48 42 44 49 53 56 66 75 79 80 87 88 74 67 64 55 52 52
78 80 80 78 72 64 60 55 47 38 29 23 22 23 23 24 26 29 30 38 44 52 59 60 58 51 48 46 48 55 61 68 75 77 82 88 88 74 66 64 60 57 56

GFSMW_prec_cthk_033.txt.gz
RH
40 42 43 44 43 41 41 42 52 61 63 61 59 64 61 60 56 52 49 45 42 40 40 39 40 40 40 45 49 50 47 46 49 52 41 41 39 40 40 39 39 35 35
43 42 41 43 43 45 44 46 53 56 61 59 59 62 60 59 58 55 51 44 40 37 38 41 44 45 49 54 54 49 45 46 45 45 50 51 47 46 46 46 43 40 38
41 42 43 43 45 47 45 51 59 67 66 59 63 63 64 65 59 55 52 45 42 41 44 47 48 51 52 57 56 53 45 45 50 50 51 52 49 51 54 54 53 51 52
42 47 44 43 47 51 52 60 68 71 67 61 65 66 69 69 59 56 55 50 49 50 52 54 55 58 60 67 64 60 50 48 48 49 51 55 59 60 56 57 58 61 62
42 44 45 50 51 60 66 59 72 79 71 63 65 71 66 62 61 57 53 53 56 56 61 62 64 64 76 73 58 56 48 49 56 58 59 62 61 59 60 58 63 66 66
50 54 51 51 52 63 66 66 73 69 72 64 65 64 63 63 61 57 56 63 65 67 69 65 69 74 85 78 59 70 60 53 57 57 61 62 62 63 65 63 66 67 66
47 49 49 51 57 57 66 74 74 70 63 58 56 55 58 63 69 67 73 76 71 74 78 68 75 85 82 66 60 52 55 58 59 61 61 65 64 63 64 66 63 61 61
37 43 48 52 53 57 64 79 67 62 56 55 52 52 58 69 74 75 80 74 77 77 72 80 94 87 65 65 64 63 55 57 54 59 64 65 63 61 62 63 65 67 68
31 37 43 44 52 54 63 67 55 54 53 50 49 51 63 71 71 78 78 82 80 86 93 89 77 75 69 70 56 61 58 63 66 68 68 65 67 71 74 71 73 72 68
28 31 33 38 41 51 53 47 48 47 44 46 51 55 61 64 72 73 76 80 85 84 82 75 77 74 73 65 64 67 67 70 68 65 63 64 66 69 70 70 73 69 70
25 26 27 31 33 32 31 33 35 36 39 44 49 57 66 74 75 76 78 78 76 73 72 74 78 74 73 72 76 74 70 65 65 64 64 63 72 72 69 69 63 57 55
28 24 28 34 36 37 38 37 38 45 51 55 61 72 79 83 83 79 75 69 68 72 76 77 75 79 78 80 79 76 72 62 62 68 69 66 65 66 63 51 47 47 47
31 33 35 39 44 45 46 51 57 65 71 75 80 84 81 83 80 74 69 69 73 72 74 77 82 83 82 81 78 72 70 74 71 65 61 57 53 45 40 41 43 43 42
31 34 39 43 48 50 55 54 61 71 75 77 79 80 82 77 73 71 74 73 70 73 78 78 81 87 88 82 81 80 77 69 64 53 48 42 36 39 40 41 41 39 40
35 38 43 48 48 52 53 56 66 72 78 67 66 78 80 77 78 76 72 73 77 74 77 80 87 94 90 83 81 78 70 58 50 42 38 37 37 40 43 43 39 40 43
37 39 42 44 45 44 44 48 52 56 54 61 69 73 80 86 81 75 74 82 83 90 89 89 95 96 85 80 71 66 48 37 38 41 44 44 43 47 51 46 42 44 45
38 37 36 36 36 37 40 41 44 50 55 62 70 78 78 74 77 83 83 82 86 90 91 96 96 90 80 75 51 31 32 37 41 43 43 44 48 51 49 45 47 47 47
35 35 37 36 35 34 35 37 43 51 59 69 73 75 74 79 80 81 81 83 95 93 94 90 84 77 60 30 26 29 33 40 44 45 45 47 48 46 45 49 50 49 46
34 34 34 33 32 32 37 44 53 59 66 69 71 74 79 86 93 89 98 93 95 93 80 74 59 40 22 22 25 31 38 43 45 46 47 49 47 50 48 52 49 49 45
33 32 32 34 37 41 48 53 56 60 63 68 75 86 91 90 97 89 92 94 91 71 61 48 28 21 18 21 27 35 43 47 50 49 50 53 52 58 55 56 52 50 45
33 37 41 44 47 50 52 54 60 66 73 78 84 87 89 91 89 88 80 68 56 42 33 25 22 22 23 26 31 39 44 53 53 54 55 57 60 67 70 64 57 53 48
40 43 46 47 50 51 55 61 67 74 80 85 87 87 84 77 69 60 51 40 31 28 23 22 23 26 28 31 34 44 51 54 55 60 61 62 66 73 77 76 64 62 52
48 50 52 54 56 62 67 74 79 82 82 78 71 65 59 54 48 37 28 24 22 22 24 26 26 28 36 44 49 51 51 51 55 57 66 70 74 79 82 84 75 68 59
55 56 57 60 68 77 81 81 79 75 69 63 58 54 46 36 29 22 20 21 23 26 29 32 36 41 45 51 52 50 51 54 56 56 66 71 78 85 87 88 83 71 65
60 62 66 73 77 76 75 72 68 64 58 51 43 37 32 26 23 23 24 26 29 35 39 44 50 54 51 52 53 50 48 50 56 63 65 73 86 88 91 92 88 74 70
68 72 76 77 75 70 67 63 57 50 44 39 35 30 26 24 24 26 26 33 40 46 51 54 60 58 59 57 58 57 51 47 55 63 65 75 85 89 93 95 88 75 70